Time,TemperatureF,DewpointF,PressureIn,WindDirection,WindDirectionDegrees,WindSpeedMPH,WindSpeedGustMPH,Humidity,HourlyPrecipIn,Conditions,Clouds,dailyrainin,SoftwareType,DateUTC
2013-09-08 10:12:00,58.0,58.0,25.83,NNW,327,2.0,9.0,100,0.00,,,0.00,,2013-09-08 17:12:00,
2013-09-08 10:23:00,58.0,58.0,25.83,NW,318,4.0,10.0,100,0.00,,,0.00,,2013-09-08 17:23:00,
2013-09-08 10:33:00,58.0,58.0,25.83,NW,318,4.0,10.0,100,0.00,,,0.00,,2013-09-08 17:33:00,
2013-09-08 10:53:00,59.0,59.0,25.83,NW,322,6.0,11.0,100,0.00,,,0.00,,2013-09-08 17:53:00,
2013-09-08 11:02:00,59.0,59.0,25.83,NW,322,6.0,11.0,100,0.00,,,0.00,,2013-09-08 18:02:00,
2013-09-08 11:13:00,59.0,59.0,25.83,NW,322,6.0,11.0,100,0.00,,,0.00,,2013-09-08 18:13:00,
2013-09-08 11:21:00,59.0,59.0,25.83,NW,322,6.0,11.0,100,0.00,,,0.00,,2013-09-08 18:21:00,
2013-09-08 11:52:00,59.0,59.0,25.83,NW,319,6.0,17.0,100,0.00,,,0.00,,2013-09-08 18:52:00,
2013-09-08 12:11:00,59.0,59.0,25.83,NNW,343,2.0,17.0,100,0.00,,,0.00,,2013-09-08 19:11:00,
2013-09-08 12:21:00,60.0,60.0,25.83,NW,309,4.0,14.0,100,0.00,,,0.00,,2013-09-08 19:21:00,
2013-09-08 12:52:00,60.0,60.0,25.83,NW,316,6.0,13.0,99,0.00,,,0.00,,2013-09-08 19:52:00,
2013-09-08 13:11:00,60.0,60.0,25.83,NW,312,6.0,11.0,99,0.00,,,0.00,,2013-09-08 20:11:00,
2013-09-08 13:22:00,60.0,60.0,25.83,NW,312,6.0,11.0,99,0.00,,,0.00,,2013-09-08 20:22:00,
2013-09-08 13:53:00,61.0,60.0,25.83,NW,317,5.0,14.0,98,0.00,,,0.00,,2013-09-08 20:53:00,
2013-09-08 14:22:00,62.0,61.0,25.83,NW,316,6.0,13.0,95,0.00,,,0.00,,2013-09-08 21:22:00,
2013-09-08 14:54:00,62.0,61.0,25.83,NNW,332,3.0,13.0,95,0.00,,,0.00,,2013-09-08 21:54:00,
2013-09-08 15:13:00,63.0,61.0,25.83,NW,316,5.0,10.0,93,0.00,,,0.00,,2013-09-08 22:13:00,
2013-09-08 15:24:00,62.0,60.0,25.83,NW,319,4.0,15.0,93,0.00,,,0.00,,2013-09-08 22:24:00,
2013-09-08 15:53:00,62.0,60.0,25.83,NW,313,7.0,17.0,94,0.00,,,0.00,,2013-09-08 22:53:00,
2013-09-08 16:12:00,61.0,60.0,25.83,NW,317,7.0,21.0,95,0.00,,,0.00,,2013-09-08 23:12:00,
2013-09-08 16:22:00,61.0,60.0,25.83,NW,317,7.0,21.0,95,0.00,,,0.00,,2013-09-08 23:22:00,
2013-09-08 16:34:00,61.0,60.0,25.83,NW,317,7.0,21.0,95,0.00,,,0.00,,2013-09-08 23:34:00,
2013-09-08 16:42:00,61.0,60.0,25.83,NW,317,7.0,21.0,95,0.00,,,0.00,,2013-09-08 23:42:00,
2013-09-08 17:11:00,64.0,61.0,25.83,WNW,300,11.0,21.0,91,0.00,,,0.00,,2013-09-09 00:11:00,
2013-09-08 17:22:00,64.0,61.0,25.83,WNW,300,11.0,21.0,91,0.00,,,0.00,,2013-09-09 00:22:00,
2013-09-08 17:52:00,62.0,60.0,25.83,NW,315,7.0,20.0,94,0.00,,,0.00,,2013-09-09 00:52:00,
2013-09-08 18:12:00,61.0,60.0,25.83,NW,319,8.0,20.0,96,0.00,,,0.00,,2013-09-09 01:12:00,
2013-09-08 18:21:00,61.0,60.0,25.83,NW,319,8.0,20.0,96,0.00,,,0.00,,2013-09-09 01:21:00,
2013-09-08 18:32:00,61.0,60.0,25.83,NW,319,8.0,20.0,96,0.00,,,0.00,,2013-09-09 01:32:00,
2013-09-08 18:52:00,59.0,58.0,25.83,NNW,329,10.0,19.0,98,0.00,,,0.00,,2013-09-09 01:52:00,
2013-09-08 19:02:00,59.0,58.0,25.83,NNW,329,10.0,19.0,98,0.00,,,0.00,,2013-09-09 02:02:00,
2013-09-08 19:11:00,59.0,58.0,25.83,NNW,329,10.0,19.0,98,0.00,,,0.00,,2013-09-09 02:11:00,
2013-09-08 19:21:00,59.0,58.0,25.83,NNW,329,10.0,19.0,98,0.00,,,0.00,,2013-09-09 02:21:00,